Location: Peebles
(55.6412°N, 3.1714°W)
Time: 20:31:33
(UTC+01:00)

deb Kosmos-2123 - Pass Details

Date: 09 July 2022
Orbit: 942 x 985 km, 82.9° (Epoch: 17 August)

Event Time Altitude Azimuth Distance (km) Brightness Sun altitude
Exits shadow 02:54:22 - 236° (SW) 3,130 ? -9.3°
Reaches altitude 10° 02:55:37 10° 242° (WSW) 2,737 ? -9.3°
Maximum altitude 03:00:56 28° 300° (WNW) 1,740 ? -9.0°
Drops below altitude 10° 03:06:16 10° 358° (N) 2,730 ? -8.7°
Sets 03:09:11 0° 10° (N) 3,673 ? -8.5°
